Location: Rounton
(54.4000°N, 1.3500°W)
Time: 02:23:09
(UTC+00:00)

Explorer 7 - Pass Details

Date: 09 December 2021
Orbit: 483 x 674 km, 50.3° (Epoch: 18 January)

Event Time Altitude Azimuth Distance (km) Brightness Sun altitude
Exits shadow 05:36:26 33° 207° (SSW) 972 7.9 -21.4°
Maximum altitude 05:37:38 41° 167° (SSE) 821 7.8 -21.3°
Drops below altitude 10° 05:41:31 10° 97° (E) 1,807 10.6 -20.7°
Sets 05:43:45 0° 90° (E) 2,668 11.8 -20.4°
